This is the latest recevied weather packets stored in our database for station/object K3CHZ. If no packets are shown the sender has not sent any weather packets the latest 10 day(s).
| Time | Temp. | Humidity | Pressure | Rain* | Wind** | Luminosity | Snow |
|---|---|---|---|---|---|---|---|
| 1777673242 | 17.22° C | 42% | 1010.3 hPa | 0 mm | - | - | - |
| 1777672942 | 17.22° C | 42% | 1010.4 hPa | 0 mm | - | - | - |
| 1777672642 | 17.22° C | 44% | 1010.4 hPa | 0 mm | - | - | - |
| 1777672342 | 17.22° C | 40% | 1010.4 hPa | 0 mm | - | - | - |
| 1777672044 | 17.22° C | 41% | 1010.4 hPa | 0 mm | - | - | - |
| 1777671742 | 17.22° C | 42% | 1010.5 hPa | 0 mm | - | - | - |
| 1777671442 | 17.22° C | 40% | 1010.5 hPa | 0 mm | - | - | - |
| 1777671142 | 17.22° C | 41% | 1010.5 hPa | 0 mm | - | - | - |
| 1777670842 | 17.22° C | 39% | 1010.7 hPa | 0 mm | - | - | - |
| 1777670542 | 17.22° C | 39% | 1010.7 hPa | 0 mm | - | - | - |
| 1777670242 | 17.22° C | 38% | 1010.7 hPa | 0 mm | - | - | - |
| 1777669941 | 17.22° C | 39% | 1010.6 hPa | 0 mm | - | - | - |
| 1777669643 | 17.22° C | 38% | 1010.6 hPa | 0 mm | - | - | - |
| 1777669342 | 17.22° C | 39% | 1010.6 hPa | 0 mm | - | - | - |
| 1777669042 | 17.22° C | 37% | 1010.7 hPa | 0 mm | - | - | - |
| 1777668743 | 17.22° C | 39% | 1010.7 hPa | 0 mm | - | - | - |
| 1777668443 | 17.22° C | 40% | 1010.6 hPa | 0 mm | - | - | - |
| 1777668142 | 17.22° C | 39% | 1010.7 hPa | 0 mm | - | - | - |
| 1777667842 | 17.22° C | 40% | 1010.8 hPa | 0 mm | - | - | - |
| 1777667542 | 17.22° C | 42% | 1010.8 hPa | 0 mm | - | - | - |
| 1777667243 | 17.22° C | 43% | 1010.7 hPa | 0 mm | - | - | - |
| 1777667104 | 17.22° C | 41% | 1010.9 hPa | 0 mm | - | - | - |
| 1777666805 | 17.22° C | 42% | 1011 hPa | 0 mm | - | - | - |
| 1777666504 | 17.22° C | 42% | 1011 hPa | 0 mm | - | - | - |
| 1777666205 | 17.22° C | 44% | 1011 hPa | 0 mm | - | - | - |
* Rain latest hour (hover to see other rain measurements)
** Current wind speed in m/s (hover to see current wind gust speed)